BLOCK DM-SL R/B, 29521

Orbit data source: Space-Track

BLOCK DM-SL R/B, 29521 is space debris in HEO originally from a launch on Mon, 30 Oct 2006 UTC launched from the Sea Launch (SEAL). Debris objects in space refer to the collection of defunct objects orbiting the Earth. Examples of debris include non-operational satellites, rocket bodies, and fragments generated from explosions, collisions, or faulty payload assembly.

Loading next visibility...
Identifier
29521, 2006-049B
Orbit
HEO
Country
Flag of USUS / SEAL
Related business
Manufacturer
RKKE
Mission
Spacecraft
Bus & Motor
BLOK DM2, 11D58M
Mass
~3,070 kg wet, 3,070 kg dry
Launch date (UTC)
2006-10-30 (20 years ago)
Launch vehicle
Unknown
Launch site
Sea Launch (SEAL)
Object type
Payload
Rocket body
Debris
Shape & HBR
Cyl, 3.1 m
Radar Cross Section
23.684 m², Large (>1 m²)

Expand to show TLE details & history
Last TLE update: 8 hours ago

TLE from 8 hours ago
0 BLOCK DM-SL R/B
1 29521U 06049B   26126.13127954 -.00000078  00000-0  00000+0 0  9992
2 29521   0.7198  34.5787 6947641  49.1928 322.4306  2.18871444156012
Epoch: 2026-05-06T03:09Z
TLE epoch observation values (Epoch: 2026-05-06T03:09:02.552Z)
Latitude
-0.66243°
Longitude
49.37465°
Altitude
14,480.615 km
Speed
4.723 km/s
True Right ascension
21h 22m 31s
True Declination
0° 39' 40"
Sunlit
Object was in daylight at epoch
Visualization orbit readout
Latitude
Unknown
Longitude
Unknown
Altitude
Unknown
Speed
Unknown
Apparent Right ascension
Unknown
Apparent Declination
Unknown
Sunlit
N/A
Visualization observer readout
Local Sidereal Time
18:38:19
Azimuth
Unknown
Elevation
Unknown
Doppler factor
Unknown
Orbital elements
Apogee altitude
36,096.905 km
Perigee altitude
1,271.841 km
Semi-major axis
25,062.51 km
Eccentricity
0.69476
Inclination
0.7198°
RAAN
34.5787°
Arg. of periapsis
49.1928°
True anomaly
236.81995°
Mean anomaly
322.4306°
Eccentric anomaly
283.76717°
Mean motion
0.54702 °/min
Orbital period
658.11 mins
BSTAR
0
Loading maneuver chart data...
Computing Atmospheric mass density...
Loading historical data...
Loading historical data...
Loading historical data...
Loading historical data...
Loading historical data...
Loading historical data...
Loading historical data...
Other satellites on launch #49 in the year 2006 (2006-10-30 UTC)

Documentation

Showing up to 5 results
|